COSMOS 2496             
1 39761U 14028A   19265.74753679  .00000018  00000-0  57511-4 0  9994
2 39761  82.4466 209.2637 0020966  37.1414 323.1108 12.42870862242051
COSMOS 2497             
1 39762U 14028B   19266.20317935  .00000030  00000-0  14423-3 0  9996
2 39762  82.4519 209.7030 0021630  30.0032 330.2309 12.42898533242114
COSMOS 2498             
1 39763U 14028C   19266.18242783  .00000022  00000-0  84194-4 0  9996
2 39763  82.4476 209.0822 0022020  30.6750 329.5604 12.42881499242118
BREEZE-KM R/B           
1 39764U 14028D   19265.91961434  .00000005  00000-0 -24278-4 0  9997
2 39764  82.4371 112.2603 0229254  14.4231 346.3271 12.83510197249963
COSMOS 2499 (RS-47)     
1 39765U 14028E   19266.73869487  .00000038  00000-0  10000-3 0  9996
2 39765  82.4396 112.0484 0231318  13.4083 347.3025 12.82924032250005